Time,TemperatureF,DewpointF,PressureIn,WindDirection,WindDirectionDegrees,WindSpeedMPH,WindSpeedGustMPH,Humidity,HourlyPrecipIn,Conditions,Clouds,dailyrainin,SoftwareType,DateUTC
2013-05-10 00:01:00,75.0,75.2,30.06,South,180,2.5,2.5,96,0.00,,,0.00,Graphweather,2013-05-10 04:01:00,
2013-05-10 00:02:00,75.0,75.2,30.06,South,180,2.5,2.5,96,0.00,,,0.00,Graphweather,2013-05-10 04:02:00,
2013-05-10 00:03:00,75.0,75.2,30.06,South,180,2.5,2.5,96,0.00,,,0.00,Graphweather,2013-05-10 04:03:00,
2013-05-10 00:06:00,75.0,75.2,30.06,South,180,2.5,2.5,96,0.00,,,0.00,Graphweather,2013-05-10 04:06:00,
2013-05-10 00:11:00,75.0,73.4,30.06,South,180,2.5,2.5,95,0.00,,,0.00,Graphweather,2013-05-10 04:11:00,
2013-05-10 00:12:00,75.0,73.4,30.06,South,180,2.5,0.0,95,0.00,,,0.00,Graphweather,2013-05-10 04:12:00,
2013-05-10 00:17:00,75.0,73.4,30.06,SSE,157,2.2,3.4,95,0.00,,,0.00,Graphweather,2013-05-10 04:17:00,
2013-05-10 00:22:00,75.0,73.4,30.06,SSE,157,2.2,3.4,94,0.00,,,0.00,Graphweather,2013-05-10 04:22:00,
2013-05-10 00:27:00,74.8,73.4,30.06,SSE,157,2.2,3.4,94,0.00,,,0.00,Graphweather,2013-05-10 04:27:00,
2013-05-10 00:32:00,74.8,73.4,30.06,SSE,157,2.2,0.0,94,0.00,,,0.00,Graphweather,2013-05-10 04:32:00,
2013-05-10 00:37:00,74.8,73.4,30.06,SSE,157,2.2,0.0,95,0.00,,,0.00,Graphweather,2013-05-10 04:37:00,
2013-05-10 00:42:00,74.8,73.4,30.03,SSE,157,2.2,0.0,95,0.00,,,0.00,Graphweather,2013-05-10 04:42:00,
2013-05-10 00:48:00,74.7,73.4,30.03,SSE,157,2.2,0.0,95,0.00,,,0.00,Graphweather,2013-05-10 04:48:00,
2013-05-10 00:55:00,74.7,73.4,30.03,North,-999,0.0,0.0,94,0.00,,,0.00,Graphweather,2013-05-10 04:55:00,
2013-05-10 01:00:00,74.7,73.4,30.03,North,-999,0.0,0.0,94,0.00,,,0.00,Graphweather,2013-05-10 05:00:00,
2013-05-10 01:05:00,74.8,73.4,30.03,North,-999,0.0,0.0,93,0.00,,,0.00,Graphweather,2013-05-10 05:05:00,
2013-05-10 01:10:00,74.8,73.4,30.06,North,-999,0.0,0.0,94,0.00,,,0.00,Graphweather,2013-05-10 05:10:00,
2013-05-10 01:15:00,74.8,73.4,30.06,North,-999,0.0,0.0,93,0.00,,,0.00,Graphweather,2013-05-10 05:15:00,
2013-05-10 01:20:00,74.8,73.4,30.06,North,-999,0.0,0.0,93,0.00,,,0.00,Graphweather,2013-05-10 05:20:00,
2013-05-10 01:25:00,74.8,73.4,30.06,North,-999,0.0,0.0,93,0.00,,,0.00,Graphweather,2013-05-10 05:25:00,
2013-05-10 01:30:00,74.8,71.6,30.06,North,-999,0.0,0.0,91,0.00,,,0.00,Graphweather,2013-05-10 05:30:00,
2013-05-10 01:35:00,74.8,71.6,30.06,North,-999,0.0,0.0,89,0.00,,,0.00,Graphweather,2013-05-10 05:35:00,
2013-05-10 01:40:00,74.8,71.6,30.03,North,-999,0.0,0.0,89,0.00,,,0.00,Graphweather,2013-05-10 05:40:00,
2013-05-10 01:45:00,74.8,71.6,30.03,WSW,247,2.0,2.0,89,0.00,,,0.00,Graphweather,2013-05-10 05:45:00,
2013-05-10 01:50:00,74.7,71.6,30.03,ESE,112,2.5,2.5,90,0.00,,,0.00,Graphweather,2013-05-10 05:50:00,
2013-05-10 01:55:00,74.8,71.6,30.03,NNE,22,2.9,4.7,90,0.00,,,0.00,Graphweather,2013-05-10 05:55:00,
2013-05-10 02:01:00,74.8,71.6,30.03,ENE,67,3.4,5.4,89,0.00,,,0.00,Graphweather,2013-05-10 06:01:00,
2013-05-10 02:06:00,75.0,71.6,30.03,ESE,112,3.6,3.6,89,0.00,,,0.00,Graphweather,2013-05-10 06:06:00,
2013-05-10 02:11:00,75.2,71.6,30.03,ESE,112,3.6,4.0,87,0.00,,,0.00,Graphweather,2013-05-10 06:11:00,
2013-05-10 02:16:00,75.0,71.6,30.03,NNE,22,2.9,2.9,89,0.00,,,0.00,Graphweather,2013-05-10 06:16:00,
2013-05-10 02:21:00,75.0,71.6,30.03,NNE,22,3.1,3.4,88,0.00,,,0.00,Graphweather,2013-05-10 06:21:00,
2013-05-10 02:26:00,75.2,71.6,30.03,ENE,67,3.8,3.8,89,0.00,,,0.00,Graphweather,2013-05-10 06:26:00,
2013-05-10 02:31:00,75.0,71.6,30.03,East,90,3.4,4.7,89,0.00,,,0.00,Graphweather,2013-05-10 06:31:00,
2013-05-10 02:36:00,75.0,71.6,30.03,SE,135,2.7,2.7,89,0.00,,,0.00,Graphweather,2013-05-10 06:36:00,
2013-05-10 02:41:00,74.8,71.6,30.03,ESE,112,2.7,3.8,88,0.00,,,0.00,Graphweather,2013-05-10 06:41:00,
2013-05-10 02:46:00,74.8,71.6,30.03,East,90,2.7,2.9,89,0.00,,,0.00,Graphweather,2013-05-10 06:46:00,
2013-05-10 02:51:00,74.7,71.6,30.03,ENE,67,2.0,2.0,89,0.00,,,0.00,Graphweather,2013-05-10 06:51:00,
2013-05-10 02:56:00,74.5,71.6,30.00,East,90,2.7,3.4,89,0.00,,,0.00,Graphweather,2013-05-10 06:56:00,
2013-05-10 03:01:00,74.7,71.6,30.00,East,90,2.5,3.1,89,0.00,,,0.00,Graphweather,2013-05-10 07:01:00,
2013-05-10 03:06:00,74.7,71.6,30.00,ESE,112,2.9,3.1,89,0.00,,,0.00,Graphweather,2013-05-10 07:06:00,
2013-05-10 03:11:00,74.7,71.6,29.97,NE,45,1.6,2.7,90,0.00,,,0.00,Graphweather,2013-05-10 07:11:00,
2013-05-10 03:16:00,74.5,71.6,29.97,NNE,22,2.9,3.8,90,0.00,,,0.00,Graphweather,2013-05-10 07:16:00,
2013-05-10 03:21:00,74.7,71.6,29.97,ENE,67,2.2,5.8,89,0.00,,,0.00,Graphweather,2013-05-10 07:21:00,
2013-05-10 03:26:00,74.7,71.6,30.00,ESE,112,2.5,2.5,89,0.00,,,0.00,Graphweather,2013-05-10 07:26:00,
2013-05-10 03:31:00,74.8,71.6,30.00,East,90,2.0,4.5,90,0.00,,,0.00,Graphweather,2013-05-10 07:31:00,
2013-05-10 03:36:00,74.8,71.6,30.00,SSW,202,2.7,2.7,90,0.00,,,0.00,Graphweather,2013-05-10 07:36:00,
2013-05-10 03:41:00,75.0,71.6,30.00,SSE,157,2.9,2.9,90,0.00,,,0.00,Graphweather,2013-05-10 07:41:00,
2013-05-10 03:46:00,75.0,73.4,30.00,SE,135,1.6,3.6,91,0.00,,,0.00,Graphweather,2013-05-10 07:46:00,
2013-05-10 03:52:00,75.0,73.4,30.00,ESE,112,2.7,2.7,91,0.00,,,0.00,Graphweather,2013-05-10 07:52:00,
2013-05-10 03:57:00,75.0,73.4,30.00,SW,225,2.5,2.7,92,0.00,,,0.00,Graphweather,2013-05-10 07:57:00,
2013-05-10 04:02:00,75.2,73.4,30.00,ENE,67,3.4,3.6,91,0.00,,,0.00,Graphweather,2013-05-10 08:02:00,
2013-05-10 04:07:00,75.2,73.4,30.00,East,90,2.7,2.7,91,0.00,,,0.00,Graphweather,2013-05-10 08:07:00,
2013-05-10 04:12:00,75.0,73.4,30.00,East,90,3.1,5.4,91,0.00,,,0.00,Graphweather,2013-05-10 08:12:00,
2013-05-10 04:17:00,75.2,73.4,30.00,ENE,67,3.4,3.4,92,0.00,,,0.00,Graphweather,2013-05-10 08:17:00,
2013-05-10 04:22:00,75.0,73.4,30.00,SE,135,4.5,4.5,93,0.00,,,0.00,Graphweather,2013-05-10 08:22:00,
2013-05-10 04:27:00,75.0,73.4,30.00,SSW,202,3.8,4.0,92,0.00,,,0.00,Graphweather,2013-05-10 08:27:00,
2013-05-10 04:32:00,75.0,73.4,30.00,ENE,67,3.4,4.0,93,0.00,,,0.00,Graphweather,2013-05-10 08:32:00,
2013-05-10 04:37:00,75.0,73.4,30.00,East,90,2.7,2.7,92,0.00,,,0.00,Graphweather,2013-05-10 08:37:00,
2013-05-10 04:42:00,75.0,73.4,30.00,North,0,4.5,4.5,91,0.00,,,0.00,Graphweather,2013-05-10 08:42:00,
2013-05-10 04:48:00,74.8,73.4,30.00,SE,135,3.1,3.8,93,0.00,,,0.00,Graphweather,2013-05-10 08:48:00,
2013-05-10 04:53:00,75.0,73.4,29.97,ENE,67,2.9,4.3,93,0.00,,,0.00,Graphweather,2013-05-10 08:53:00,
2013-05-10 04:58:00,74.8,73.4,29.97,SW,225,2.9,2.9,93,0.00,,,0.00,Graphweather,2013-05-10 08:58:00,
2013-05-10 05:03:00,74.8,73.4,29.97,NNE,22,2.5,2.9,93,0.00,,,0.00,Graphweather,2013-05-10 09:03:00,
2013-05-10 05:08:00,74.8,71.6,29.97,East,90,3.1,3.1,92,0.00,,,0.00,Graphweather,2013-05-10 09:08:00,
2013-05-10 05:14:00,74.8,73.4,29.97,ESE,112,2.7,3.1,94,0.00,,,0.00,Graphweather,2013-05-10 09:14:00,
2013-05-10 05:19:00,74.8,73.4,29.97,ESE,112,3.1,3.6,93,0.00,,,0.00,Graphweather,2013-05-10 09:19:00,
2013-05-10 05:24:00,75.0,73.4,29.94,ESE,112,2.9,3.4,93,0.00,,,0.00,Graphweather,2013-05-10 09:24:00,
2013-05-10 05:29:00,75.0,73.4,29.94,East,90,3.1,3.6,94,0.00,,,0.00,Graphweather,2013-05-10 09:29:00,
2013-05-10 05:35:00,74.8,73.4,29.94,ESE,112,3.6,3.6,93,0.00,,,0.00,Graphweather,2013-05-10 09:35:00,
2013-05-10 05:40:00,75.0,73.4,29.97,East,90,3.1,3.1,94,0.00,,,0.00,Graphweather,2013-05-10 09:40:00,
2013-05-10 05:45:00,75.0,73.4,29.97,East,90,2.7,2.7,94,0.00,,,0.00,Graphweather,2013-05-10 09:45:00,
2013-05-10 05:50:00,75.2,73.4,29.97,East,90,2.5,2.5,94,0.00,,,0.00,Graphweather,2013-05-10 09:50:00,
2013-05-10 05:55:00,75.4,73.4,30.00,ESE,112,2.2,2.9,94,0.00,,,0.00,Graphweather,2013-05-10 09:55:00,
2013-05-10 06:00:00,75.7,73.4,30.00,South,180,2.7,2.9,93,0.00,,,0.00,Graphweather,2013-05-10 10:00:00,
2013-05-10 06:05:00,75.9,73.4,30.00,ESE,112,3.8,4.9,92,0.00,,,0.00,Graphweather,2013-05-10 10:05:00,
2013-05-10 06:10:00,76.1,73.4,29.97,ESE,112,2.9,3.4,92,0.00,,,0.00,Graphweather,2013-05-10 10:10:00,
2013-05-10 06:15:00,77.2,75.2,29.97,SSE,157,2.5,2.9,91,0.00,,,0.00,Graphweather,2013-05-10 10:15:00,
2013-05-10 06:20:00,78.3,75.2,29.97,East,90,2.2,3.4,90,0.00,,,0.00,Graphweather,2013-05-10 10:20:00,
2013-05-10 06:25:00,78.6,75.2,30.00,NE,45,2.2,2.2,88,0.00,,,0.00,Graphweather,2013-05-10 10:25:00,
2013-05-10 06:30:00,79.2,75.2,30.00,SSW,202,3.1,3.1,88,0.00,,,0.00,Graphweather,2013-05-10 10:30:00,
2013-05-10 06:35:00,79.7,75.2,30.00,NW,315,3.8,4.9,85,0.00,,,0.00,Graphweather,2013-05-10 10:35:00,
2013-05-10 06:40:00,80.2,75.2,30.00,ESE,112,3.8,4.9,84,0.00,,,0.00,Graphweather,2013-05-10 10:40:00,
2013-05-10 06:46:00,81.1,75.2,30.00,ESE,112,3.8,6.3,82,0.00,,,0.00,Graphweather,2013-05-10 10:46:00,
2013-05-10 06:51:00,81.1,75.2,30.00,ESE,112,4.3,6.0,80,0.00,,,0.00,Graphweather,2013-05-10 10:51:00,
2013-05-10 06:56:00,80.4,75.2,30.00,ESE,112,3.8,3.8,80,0.00,,,0.00,Graphweather,2013-05-10 10:56:00,
2013-05-10 07:01:00,81.7,75.2,30.00,South,180,3.4,3.4,79,0.00,,,0.00,Graphweather,2013-05-10 11:01:00,
2013-05-10 07:06:00,79.9,73.4,30.00,ESE,112,3.1,3.8,80,0.00,,,0.00,Graphweather,2013-05-10 11:06:00,
2013-05-10 07:11:00,78.8,73.4,30.00,South,180,2.7,2.7,81,0.00,,,0.00,Graphweather,2013-05-10 11:11:00,
2013-05-10 07:16:00,78.1,73.4,30.00,ESE,112,2.7,2.7,83,0.00,,,0.00,Graphweather,2013-05-10 11:16:00,
2013-05-10 07:21:00,78.1,73.4,30.00,NW,315,2.9,5.4,84,0.00,,,0.00,Graphweather,2013-05-10 11:21:00,
2013-05-10 07:26:00,80.6,75.2,30.00,ENE,67,2.9,2.9,83,0.00,,,0.00,Graphweather,2013-05-10 11:26:00,
2013-05-10 07:31:00,81.9,75.2,30.00,ESE,112,2.9,2.9,81,0.00,,,0.00,Graphweather,2013-05-10 11:31:00,
2013-05-10 07:36:00,79.9,73.4,30.00,South,180,3.1,3.6,81,0.00,,,0.00,Graphweather,2013-05-10 11:36:00,
2013-05-10 07:42:00,79.0,73.4,30.00,ESE,112,3.4,3.4,82,0.00,,,0.00,Graphweather,2013-05-10 11:42:00,
2013-05-10 07:47:00,80.6,75.2,30.00,ESE,112,3.6,4.7,81,0.00,,,0.00,Graphweather,2013-05-10 11:47:00,
2013-05-10 07:52:00,79.5,73.4,30.00,ESE,112,2.7,4.7,81,0.00,,,0.00,Graphweather,2013-05-10 11:52:00,
2013-05-10 07:57:00,80.1,75.2,30.03,ESE,112,2.7,4.0,82,0.00,,,0.00,Graphweather,2013-05-10 11:57:00,
2013-05-10 08:02:00,82.4,77.0,30.03,ENE,67,3.1,3.4,80,0.00,,,0.00,Graphweather,2013-05-10 12:02:00,
2013-05-10 08:07:00,84.2,77.0,30.03,ESE,112,4.0,4.3,75,0.00,,,0.00,Graphweather,2013-05-10 12:07:00,
2013-05-10 08:12:00,84.6,75.2,30.03,SSE,157,3.8,3.8,72,0.00,,,0.00,Graphweather,2013-05-10 12:12:00,
2013-05-10 08:18:00,86.4,77.0,30.03,NE,45,2.9,3.1,73,0.00,,,0.00,Graphweather,2013-05-10 12:18:00,
2013-05-10 08:23:00,87.1,75.2,30.03,ENE,67,3.6,3.6,69,0.00,,,0.00,Graphweather,2013-05-10 12:23:00,
2013-05-10 08:28:00,88.3,75.2,30.03,SSE,157,3.6,3.6,66,0.00,,,0.00,Graphweather,2013-05-10 12:28:00,
2013-05-10 08:33:00,88.9,77.0,30.03,SSE,157,2.2,6.0,65,0.00,,,0.00,Graphweather,2013-05-10 12:33:00,
2013-05-10 08:38:00,89.8,77.0,30.03,East,90,2.9,3.6,65,0.00,,,0.00,Graphweather,2013-05-10 12:38:00,
2013-05-10 08:44:00,89.6,77.0,30.03,ENE,67,2.2,2.2,66,0.00,,,0.00,Graphweather,2013-05-10 12:44:00,
2013-05-10 08:49:00,85.5,73.4,30.03,ENE,67,3.4,3.4,66,0.00,,,0.00,Graphweather,2013-05-10 12:49:00,
2013-05-10 08:54:00,82.9,71.6,30.03,ENE,67,2.7,3.8,69,0.00,,,0.00,Graphweather,2013-05-10 12:54:00,
2013-05-10 08:59:00,84.0,75.2,30.03,ESE,112,2.7,4.9,72,0.00,,,0.00,Graphweather,2013-05-10 12:59:00,
2013-05-10 09:04:00,85.6,75.2,30.03,ESE,112,3.1,3.1,70,0.00,,,0.00,Graphweather,2013-05-10 13:04:00,
2013-05-10 09:09:00,87.1,75.2,30.06,SSW,202,3.1,3.1,66,0.00,,,0.00,Graphweather,2013-05-10 13:09:00,
2013-05-10 09:15:00,88.9,77.0,30.06,ESE,112,2.7,2.7,65,0.00,,,0.00,Graphweather,2013-05-10 13:15:00,
2013-05-10 09:20:00,88.3,75.2,30.06,ESE,112,1.6,1.6,65,0.00,,,0.00,Graphweather,2013-05-10 13:20:00,
2013-05-10 09:25:00,85.3,73.4,30.06,East,90,2.7,2.7,67,0.00,,,0.00,Graphweather,2013-05-10 13:25:00,
2013-05-10 09:30:00,84.9,73.4,30.06,ESE,112,2.2,3.6,68,0.00,,,0.00,Graphweather,2013-05-10 13:30:00,
2013-05-10 09:35:00,89.2,77.0,30.06,East,90,2.5,2.5,66,0.00,,,0.00,Graphweather,2013-05-10 13:35:00,
2013-05-10 09:40:00,86.2,73.4,30.06,East,90,2.0,2.9,66,0.00,,,0.00,Graphweather,2013-05-10 13:40:00,
2013-05-10 09:45:00,85.1,73.4,30.06,SSW,202,2.5,3.6,68,0.00,,,0.00,Graphweather,2013-05-10 13:45:00,
2013-05-10 09:51:00,84.7,73.4,30.06,SE,135,2.5,2.5,69,0.00,,,0.00,Graphweather,2013-05-10 13:51:00,
2013-05-10 09:56:00,88.2,75.2,30.09,ESE,112,2.9,3.6,65,0.00,,,0.00,Graphweather,2013-05-10 13:56:00,
2013-05-10 10:01:00,87.8,73.4,30.09,ENE,67,2.9,4.0,63,0.00,,,0.00,Graphweather,2013-05-10 14:01:00,
2013-05-10 10:06:00,87.1,73.4,30.09,ESE,112,2.7,2.7,64,0.00,,,0.00,Graphweather,2013-05-10 14:06:00,
2013-05-10 10:11:00,86.7,73.4,30.06,East,90,2.7,4.5,66,0.00,,,0.00,Graphweather,2013-05-10 14:11:00,
2013-05-10 10:16:00,87.1,75.2,30.06,East,90,3.4,5.8,66,0.00,,,0.00,Graphweather,2013-05-10 14:16:00,
2013-05-10 10:22:00,89.8,75.2,30.06,NNW,337,2.9,4.7,62,0.00,,,0.00,Graphweather,2013-05-10 14:22:00,
2013-05-10 10:27:00,90.9,77.0,30.03,ESE,112,2.9,3.4,62,0.00,,,0.00,Graphweather,2013-05-10 14:27:00,
2013-05-10 10:32:00,90.1,75.2,30.03,ESE,112,4.5,5.8,60,0.00,,,0.00,Graphweather,2013-05-10 14:32:00,
2013-05-10 10:37:00,89.1,75.2,30.03,ESE,112,3.1,3.6,63,0.00,,,0.00,Graphweather,2013-05-10 14:37:00,
2013-05-10 10:42:00,88.5,75.2,30.06,East,90,4.0,4.0,63,0.00,,,0.00,Graphweather,2013-05-10 14:42:00,
2013-05-10 10:47:00,86.4,73.4,30.06,ENE,67,2.0,2.0,66,0.00,,,0.00,Graphweather,2013-05-10 14:47:00,
2013-05-10 10:53:00,86.7,73.4,30.06,East,90,1.3,3.1,66,0.00,,,0.00,Graphweather,2013-05-10 14:53:00,
2013-05-10 10:58:00,89.8,77.0,30.03,East,90,2.2,2.5,64,0.00,,,0.00,Graphweather,2013-05-10 14:58:00,
2013-05-10 11:03:00,90.5,77.0,30.03,ENE,67,2.2,4.3,62,0.00,,,0.00,Graphweather,2013-05-10 15:03:00,
2013-05-10 11:08:00,90.1,77.0,30.06,ESE,112,2.2,2.7,63,0.00,,,0.00,Graphweather,2013-05-10 15:08:00,
2013-05-10 11:13:00,90.9,77.0,30.06,East,90,2.7,2.7,62,0.00,,,0.00,Graphweather,2013-05-10 15:13:00,
2013-05-10 11:18:00,92.3,77.0,30.06,East,90,2.9,2.9,60,0.00,,,0.00,Graphweather,2013-05-10 15:18:00,
2013-05-10 11:23:00,92.8,75.2,30.06,East,90,3.4,3.4,58,0.00,,,0.00,Graphweather,2013-05-10 15:23:00,
2013-05-10 11:28:00,91.8,73.4,30.06,North,0,3.4,5.4,56,0.00,,,0.00,Graphweather,2013-05-10 15:28:00,
2013-05-10 11:33:00,92.1,75.2,30.06,ESE,112,2.9,4.5,59,0.00,,,0.00,Graphweather,2013-05-10 15:33:00,
2013-05-10 11:39:00,91.8,75.2,30.06,ESE,112,3.8,6.3,57,0.00,,,0.00,Graphweather,2013-05-10 15:39:00,
2013-05-10 11:44:00,90.1,75.2,30.06,ESE,112,3.8,3.8,60,0.00,,,0.00,Graphweather,2013-05-10 15:44:00,
2013-05-10 11:49:00,89.8,73.4,30.06,SE,135,3.8,3.8,59,0.00,,,0.00,Graphweather,2013-05-10 15:49:00,
2013-05-10 11:54:00,90.9,75.2,30.06,East,90,3.1,3.4,61,0.00,,,0.00,Graphweather,2013-05-10 15:54:00,
2013-05-10 11:59:00,90.5,75.2,30.06,East,90,3.8,4.0,60,0.00,,,0.00,Graphweather,2013-05-10 15:59:00,
2013-05-10 12:04:00,88.3,73.4,30.06,ENE,67,3.6,3.6,61,0.00,,,0.00,Graphweather,2013-05-10 16:04:00,
2013-05-10 12:10:00,86.9,73.4,30.06,East,90,3.6,4.3,63,0.00,,,0.00,Graphweather,2013-05-10 16:10:00,
2013-05-10 12:15:00,88.0,75.2,30.06,East,90,2.2,2.7,64,0.00,,,0.00,Graphweather,2013-05-10 16:15:00,
2013-05-10 12:20:00,87.6,75.2,30.06,NNE,22,2.7,4.3,64,0.00,,,0.00,Graphweather,2013-05-10 16:20:00,
2013-05-10 12:25:00,85.8,73.4,30.06,East,90,2.9,3.6,65,0.00,,,0.00,Graphweather,2013-05-10 16:25:00,
2013-05-10 12:30:00,87.1,75.2,30.06,East,90,2.9,2.9,67,0.00,,,0.00,Graphweather,2013-05-10 16:30:00,
2013-05-10 12:35:00,86.4,73.4,30.06,East,90,3.4,4.9,66,0.00,,,0.00,Graphweather,2013-05-10 16:35:00,
2013-05-10 12:41:00,85.8,73.4,30.06,East,90,2.7,4.0,67,0.00,,,0.00,Graphweather,2013-05-10 16:41:00,
2013-05-10 12:46:00,86.4,73.4,30.06,SSW,202,3.6,3.6,66,0.00,,,0.00,Graphweather,2013-05-10 16:46:00,
2013-05-10 12:51:00,86.0,73.4,30.06,ESE,112,2.9,4.7,66,0.00,,,0.00,Graphweather,2013-05-10 16:51:00,
2013-05-10 12:56:00,86.4,73.4,30.03,SSE,157,2.9,3.1,66,0.00,,,0.00,Graphweather,2013-05-10 16:56:00,
2013-05-10 13:02:00,86.7,73.4,30.03,ESE,112,2.5,3.1,66,0.00,,,0.00,Graphweather,2013-05-10 17:02:00,
2013-05-10 13:07:00,87.1,73.4,30.03,East,90,2.7,2.7,64,0.00,,,0.00,Graphweather,2013-05-10 17:07:00,
2013-05-10 13:12:00,86.7,73.4,30.03,ENE,67,2.7,2.7,64,0.00,,,0.00,Graphweather,2013-05-10 17:12:00,
2013-05-10 13:17:00,86.4,73.4,30.03,ESE,112,2.7,3.1,66,0.00,,,0.00,Graphweather,2013-05-10 17:17:00,
2013-05-10 13:22:00,85.3,73.4,30.03,ESE,112,2.5,2.5,66,0.00,,,0.00,Graphweather,2013-05-10 17:22:00,
2013-05-10 13:28:00,85.6,73.4,30.03,ESE,112,2.5,2.5,67,0.00,,,0.00,Graphweather,2013-05-10 17:28:00,
2013-05-10 13:33:00,86.0,73.4,30.03,NNE,22,3.1,3.1,67,0.00,,,0.00,Graphweather,2013-05-10 17:33:00,
2013-05-10 13:38:00,87.6,75.2,30.03,ESE,112,2.9,3.1,65,0.00,,,0.00,Graphweather,2013-05-10 17:38:00,
2013-05-10 13:43:00,87.3,73.4,30.03,ESE,112,2.9,3.1,64,0.00,,,0.00,Graphweather,2013-05-10 17:43:00,
2013-05-10 13:48:00,87.8,75.2,30.03,ESE,112,2.9,3.1,64,0.00,,,0.00,Graphweather,2013-05-10 17:48:00,
2013-05-10 13:53:00,89.6,75.2,30.00,ESE,112,2.9,2.9,61,0.00,,,0.00,Graphweather,2013-05-10 17:53:00,
2013-05-10 13:59:00,90.1,73.4,30.00,SSE,157,2.7,2.7,58,0.00,,,0.00,Graphweather,2013-05-10 17:59:00,
2013-05-10 14:04:00,90.9,75.2,30.00,ESE,112,3.6,4.9,58,0.00,,,0.00,Graphweather,2013-05-10 18:04:00,
2013-05-10 14:09:00,91.2,75.2,30.00,ESE,112,2.7,4.7,57,0.00,,,0.00,Graphweather,2013-05-10 18:09:00,
2013-05-10 14:14:00,91.0,73.4,30.00,ESE,112,2.7,2.7,57,0.00,,,0.00,Graphweather,2013-05-10 18:14:00,
2013-05-10 14:19:00,90.7,73.4,30.00,ESE,112,3.6,3.6,56,0.00,,,0.00,Graphweather,2013-05-10 18:19:00,
2013-05-10 14:25:00,90.5,73.4,30.00,ESE,112,3.6,3.6,56,0.00,,,0.00,Graphweather,2013-05-10 18:25:00,
2013-05-10 14:30:00,90.0,73.4,30.00,East,90,3.8,5.4,57,0.00,,,0.00,Graphweather,2013-05-10 18:30:00,
2013-05-10 14:35:00,91.2,75.2,30.00,ESE,112,3.1,3.1,58,0.00,,,0.00,Graphweather,2013-05-10 18:35:00,
2013-05-10 14:40:00,90.1,73.4,29.97,East,90,3.1,5.4,56,0.00,,,0.00,Graphweather,2013-05-10 18:40:00,
2013-05-10 14:45:00,89.4,73.4,29.97,SSE,157,4.3,5.4,58,0.00,,,0.00,Graphweather,2013-05-10 18:45:00,
2013-05-10 14:50:00,87.1,71.6,29.97,ESE,112,4.0,4.0,61,0.00,,,0.00,Graphweather,2013-05-10 18:50:00,
2013-05-10 14:55:00,86.0,71.6,30.00,SE,135,3.1,3.4,62,0.00,,,0.00,Graphweather,2013-05-10 18:55:00,
2013-05-10 15:01:00,85.6,71.6,30.00,East,90,2.0,4.0,64,0.00,,,0.00,Graphweather,2013-05-10 19:01:00,
2013-05-10 15:06:00,84.7,71.6,30.00,East,90,3.6,5.4,65,0.00,,,0.00,Graphweather,2013-05-10 19:06:00,
2013-05-10 15:11:00,84.6,73.4,30.00,SSE,157,3.1,3.8,67,0.00,,,0.00,Graphweather,2013-05-10 19:11:00,
2013-05-10 15:16:00,84.7,73.4,30.00,ESE,112,2.2,2.7,68,0.00,,,0.00,Graphweather,2013-05-10 19:16:00,
2013-05-10 15:21:00,84.2,73.4,30.00,ESE,112,3.1,3.6,68,0.00,,,0.00,Graphweather,2013-05-10 19:21:00,
2013-05-10 15:26:00,83.8,73.4,30.00,ESE,112,2.5,2.5,70,0.00,,,0.00,Graphweather,2013-05-10 19:26:00,
2013-05-10 15:31:00,83.5,73.4,30.00,ENE,67,2.2,6.7,71,0.00,,,0.00,Graphweather,2013-05-10 19:31:00,
2013-05-10 15:37:00,82.8,73.4,30.00,SSE,157,2.9,3.6,72,0.00,,,0.00,Graphweather,2013-05-10 19:37:00,
2013-05-10 15:42:00,82.4,73.4,29.97,ESE,112,2.5,3.4,72,0.00,,,0.00,Graphweather,2013-05-10 19:42:00,
2013-05-10 15:47:00,81.9,73.4,29.97,SE,135,3.1,3.1,75,0.00,,,0.00,Graphweather,2013-05-10 19:47:00,
2013-05-10 15:52:00,81.1,73.4,29.97,East,90,4.7,7.4,76,0.00,,,0.00,Graphweather,2013-05-10 19:52:00,
2013-05-10 15:58:00,80.8,73.4,30.00,SSW,202,3.4,3.4,78,0.00,,,0.00,Graphweather,2013-05-10 19:58:00,
2013-05-10 16:03:00,80.6,73.4,30.00,NNE,22,3.1,3.1,77,0.00,,,0.00,Graphweather,2013-05-10 20:03:00,
2013-05-10 16:08:00,80.4,73.4,30.00,NNE,22,2.9,3.1,77,0.00,,,0.00,Graphweather,2013-05-10 20:08:00,
2013-05-10 16:13:00,81.3,73.4,30.00,East,90,2.7,3.1,76,0.00,,,0.00,Graphweather,2013-05-10 20:13:00,
2013-05-10 16:18:00,83.7,75.2,30.00,East,90,2.9,5.6,73,0.00,,,0.00,Graphweather,2013-05-10 20:18:00,
2013-05-10 16:23:00,82.6,73.4,29.97,ESE,112,3.1,3.4,72,0.00,,,0.00,Graphweather,2013-05-10 20:23:00,
2013-05-10 16:28:00,81.9,73.4,29.97,East,90,2.5,3.8,73,0.00,,,0.00,Graphweather,2013-05-10 20:28:00,
2013-05-10 16:34:00,81.7,73.4,29.97,ENE,67,2.0,3.1,73,0.00,,,0.00,Graphweather,2013-05-10 20:34:00,
2013-05-10 16:39:00,81.3,71.6,29.97,NE,45,3.4,3.4,73,0.00,,,0.00,Graphweather,2013-05-10 20:39:00,
2013-05-10 16:44:00,81.0,73.4,29.97,ENE,67,2.2,2.2,75,0.00,,,0.00,Graphweather,2013-05-10 20:44:00,
2013-05-10 16:49:00,81.0,73.4,29.97,ESE,112,2.0,2.0,76,0.00,,,0.00,Graphweather,2013-05-10 20:49:00,
2013-05-10 16:54:00,81.1,73.4,29.97,ESE,112,2.0,2.5,77,0.00,,,0.00,Graphweather,2013-05-10 20:54:00,
2013-05-10 16:59:00,81.0,73.4,29.97,East,90,2.2,3.1,76,0.00,,,0.00,Graphweather,2013-05-10 20:59:00,
2013-05-10 17:04:00,80.6,73.4,29.97,East,90,1.6,2.5,77,0.00,,,0.00,Graphweather,2013-05-10 21:04:00,
2013-05-10 17:10:00,80.4,73.4,29.97,ENE,67,2.5,3.1,78,0.00,,,0.00,Graphweather,2013-05-10 21:10:00,
2013-05-10 17:15:00,80.1,73.4,29.97,ESE,112,2.7,3.1,78,0.00,,,0.00,Graphweather,2013-05-10 21:15:00,
2013-05-10 17:20:00,79.7,73.4,29.97,East,90,2.7,2.7,80,0.00,,,0.00,Graphweather,2013-05-10 21:20:00,
2013-05-10 17:25:00,79.3,73.4,29.97,ESE,112,2.9,2.9,81,0.00,,,0.00,Graphweather,2013-05-10 21:25:00,
2013-05-10 17:30:00,79.2,73.4,29.97,ESE,112,2.9,6.3,82,0.00,,,0.00,Graphweather,2013-05-10 21:30:00,
2013-05-10 17:35:00,79.0,73.4,29.97,SE,135,3.1,3.6,82,0.00,,,0.00,Graphweather,2013-05-10 21:35:00,
2013-05-10 17:41:00,78.6,73.4,29.97,SSW,202,2.9,3.8,82,0.00,,,0.00,Graphweather,2013-05-10 21:41:00,
2013-05-10 17:46:00,78.4,73.4,29.97,SSW,202,4.0,4.0,83,0.00,,,0.00,Graphweather,2013-05-10 21:46:00,
2013-05-10 17:51:00,78.3,73.4,29.97,SSW,202,3.1,3.4,84,0.00,,,0.00,Graphweather,2013-05-10 21:51:00,
2013-05-10 17:56:00,78.3,73.4,29.97,East,90,2.2,3.1,84,0.00,,,0.00,Graphweather,2013-05-10 21:56:00,
2013-05-10 17:58:00,78.3,73.4,29.97,ENE,67,2.2,3.4,84,0.00,,,0.00,Graphweather,2013-05-10 21:58:00,
2013-05-10 17:59:00,78.1,73.4,29.97,East,90,2.5,3.4,84,0.00,,,0.00,Graphweather,2013-05-10 21:59:00,
2013-05-10 18:00:00,78.1,73.4,29.97,NNE,22,2.2,2.7,84,0.00,,,0.00,Graphweather,2013-05-10 22:00:00,
2013-05-10 18:03:00,78.1,73.4,29.97,SE,135,3.1,3.6,85,0.00,,,0.00,Graphweather,2013-05-10 22:03:00,
2013-05-10 18:07:00,77.9,73.4,29.97,NNE,22,3.1,3.1,85,0.00,,,0.00,Graphweather,2013-05-10 22:07:00,
2013-05-10 18:12:00,77.9,73.4,30.00,ESE,112,2.2,4.0,85,0.00,,,0.00,Graphweather,2013-05-10 22:12:00,
2013-05-10 18:18:00,77.7,73.4,30.00,WNW,292,2.9,2.9,86,0.00,,,0.00,Graphweather,2013-05-10 22:18:00,
2013-05-10 18:23:00,77.7,73.4,30.00,ENE,67,2.5,3.1,86,0.00,,,0.00,Graphweather,2013-05-10 22:23:00,
2013-05-10 18:28:00,77.5,73.4,30.00,ESE,112,2.9,4.3,87,0.00,,,0.00,Graphweather,2013-05-10 22:28:00,
2013-05-10 18:33:00,77.5,73.4,30.00,East,90,3.4,4.7,87,0.00,,,0.00,Graphweather,2013-05-10 22:33:00,
2013-05-10 18:38:00,77.4,73.4,30.00,ESE,112,2.9,4.3,88,0.00,,,0.00,Graphweather,2013-05-10 22:38:00,
2013-05-10 18:43:00,77.4,73.4,30.00,ESE,112,3.4,3.4,88,0.00,,,0.00,Graphweather,2013-05-10 22:43:00,
2013-05-10 18:48:00,77.4,73.4,30.00,ESE,112,2.7,2.7,87,0.00,,,0.00,Graphweather,2013-05-10 22:48:00,
2013-05-10 18:54:00,77.4,73.4,30.00,East,90,2.5,2.5,88,0.00,,,0.00,Graphweather,2013-05-10 22:54:00,
2013-05-10 18:59:00,77.2,73.4,30.00,East,90,2.5,3.6,88,0.00,,,0.00,Graphweather,2013-05-10 22:59:00,
2013-05-10 19:04:00,77.2,73.4,30.00,ESE,112,2.0,2.5,89,0.00,,,0.00,Graphweather,2013-05-10 23:04:00,
2013-05-10 19:09:00,76.8,73.4,30.00,ESE,112,2.7,3.4,90,0.00,,,0.00,Graphweather,2013-05-10 23:09:00,
2013-05-10 19:14:00,76.8,73.4,30.00,SE,135,2.9,3.4,90,0.00,,,0.00,Graphweather,2013-05-10 23:14:00,
2013-05-10 19:19:00,77.0,73.4,30.00,SSW,202,3.1,5.6,88,0.00,,,0.00,Graphweather,2013-05-10 23:19:00,
2013-05-10 19:24:00,77.2,73.4,30.03,ESE,112,2.5,2.9,88,0.00,,,0.00,Graphweather,2013-05-10 23:24:00,
2013-05-10 19:30:00,77.2,73.4,30.03,ESE,112,3.4,3.8,87,0.00,,,0.00,Graphweather,2013-05-10 23:30:00,
2013-05-10 19:35:00,77.4,75.2,30.03,SSE,157,3.1,3.1,89,0.00,,,0.00,Graphweather,2013-05-10 23:35:00,
2013-05-10 19:40:00,77.2,73.4,30.00,SSE,157,3.1,3.1,88,0.00,,,0.00,Graphweather,2013-05-10 23:40:00,
2013-05-10 19:45:00,78.4,73.4,30.00,SSE,157,3.1,3.1,85,0.00,,,0.00,Graphweather,2013-05-10 23:45:00,
2013-05-10 20:02:00,78.1,73.4,29.97,SSW,202,3.1,3.1,85,0.00,,,0.00,Graphweather,2013-05-11 00:02:00,
2013-05-10 20:07:00,77.4,73.4,29.97,SSW,202,3.1,0.0,86,0.00,,,0.00,Graphweather,2013-05-11 00:07:00,
2013-05-10 20:13:00,77.4,73.4,30.00,SSW,202,3.1,0.0,87,0.00,,,0.00,Graphweather,2013-05-11 00:13:00,
2013-05-10 20:18:00,77.4,73.4,30.00,SSW,202,3.1,0.0,86,0.00,,,0.00,Graphweather,2013-05-11 00:18:00,
2013-05-10 20:23:00,77.2,73.4,29.97,SSW,202,3.1,0.0,85,0.00,,,0.00,Graphweather,2013-05-11 00:23:00,
2013-05-10 20:28:00,77.2,73.4,29.97,SSW,202,3.1,0.0,85,0.00,,,0.00,Graphweather,2013-05-11 00:28:00,
2013-05-10 20:33:00,77.2,73.4,29.97,SSW,202,3.1,0.0,86,0.00,,,0.00,Graphweather,2013-05-11 00:33:00,
2013-05-10 20:38:00,77.2,73.4,30.00,SSW,202,3.1,0.0,86,0.00,,,0.00,Graphweather,2013-05-11 00:38:00,
2013-05-10 20:44:00,77.2,73.4,30.00,SSW,202,3.1,0.0,87,0.00,,,0.00,Graphweather,2013-05-11 00:44:00,
2013-05-10 20:49:00,77.0,73.4,30.00,SSW,202,3.1,0.0,86,0.00,,,0.00,Graphweather,2013-05-11 00:49:00,
2013-05-10 20:54:00,77.0,73.4,30.03,SSW,202,3.1,0.0,87,0.00,,,0.00,Graphweather,2013-05-11 00:54:00,
2013-05-10 20:59:00,77.0,73.4,30.03,SSW,202,3.1,0.0,86,0.00,,,0.00,Graphweather,2013-05-11 00:59:00,
2013-05-10 21:04:00,77.0,73.4,30.03,SSW,202,3.1,0.0,86,0.00,,,0.00,Graphweather,2013-05-11 01:04:00,
2013-05-10 21:09:00,77.0,73.4,30.03,SSW,202,3.1,0.0,86,0.00,,,0.00,Graphweather,2013-05-11 01:09:00,
2013-05-10 21:15:00,77.0,73.4,30.03,SSW,202,3.1,0.0,86,0.00,,,0.00,Graphweather,2013-05-11 01:15:00,
2013-05-10 21:20:00,77.0,73.4,30.03,SSW,202,3.1,0.0,86,0.21,,,0.21,Graphweather,2013-05-11 01:20:00,
2013-05-10 21:25:00,77.0,73.4,30.03,SSW,202,3.1,0.0,87,0.21,,,0.21,Graphweather,2013-05-11 01:25:00,
2013-05-10 21:30:00,77.0,73.4,30.03,SSW,202,3.1,0.0,87,0.21,,,0.21,Graphweather,2013-05-11 01:30:00,
2013-05-10 21:35:00,76.8,73.4,30.03,East,90,2.5,3.1,88,0.21,,,0.21,Graphweather,2013-05-11 01:35:00,
2013-05-10 21:55:00,76.6,73.4,30.03,SE,135,2.2,2.9,88,0.00,,,0.21,Graphweather,2013-05-11 01:55:00,
2013-05-10 22:00:00,76.6,73.4,30.03,ENE,67,2.5,0.0,88,0.00,,,0.21,Graphweather,2013-05-11 02:00:00,
2013-05-10 22:06:00,76.6,73.4,30.03,ENE,67,2.5,0.0,88,0.00,,,0.21,Graphweather,2013-05-11 02:06:00,
2013-05-10 22:12:00,76.3,73.4,30.06,ENE,67,2.5,0.0,89,0.00,,,0.21,Graphweather,2013-05-11 02:12:00,
2013-05-10 22:18:00,76.3,73.4,30.06,ESE,112,2.0,0.0,89,0.00,,,0.21,Graphweather,2013-05-11 02:18:00,
2013-05-10 22:23:00,75.4,73.4,30.06,ESE,112,2.0,2.0,92,0.00,,,0.21,Graphweather,2013-05-11 02:23:00,
2013-05-10 22:28:00,75.0,73.4,30.06,ESE,112,2.0,2.0,92,0.00,,,0.21,Graphweather,2013-05-11 02:28:00,
2013-05-10 22:33:00,75.0,73.4,30.06,ESE,112,2.0,0.0,92,0.00,,,0.21,Graphweather,2013-05-11 02:33:00,
2013-05-10 22:38:00,75.0,73.4,30.06,ESE,112,2.0,0.0,92,0.00,,,0.21,Graphweather,2013-05-11 02:38:00,
2013-05-10 22:43:00,74.8,73.4,30.06,East,90,2.9,0.0,94,0.00,,,0.21,Graphweather,2013-05-11 02:43:00,
2013-05-10 22:48:00,74.5,73.4,30.06,East,90,2.9,0.0,95,0.00,,,0.21,Graphweather,2013-05-11 02:48:00,
2013-05-10 22:53:00,74.5,73.4,30.06,East,90,2.9,0.0,95,0.00,,,0.21,Graphweather,2013-05-11 02:53:00,
2013-05-10 22:59:00,74.5,73.4,30.06,ESE,112,2.5,0.0,95,0.00,,,0.21,Graphweather,2013-05-11 02:59:00,
2013-05-10 23:04:00,74.5,73.4,30.06,ESE,112,2.5,0.0,95,0.00,,,0.21,Graphweather,2013-05-11 03:04:00,
2013-05-10 23:09:00,74.5,73.4,30.06,ESE,112,2.5,0.0,95,0.00,,,0.21,Graphweather,2013-05-11 03:09:00,
2013-05-10 23:14:00,74.5,73.4,30.06,ESE,112,2.5,0.0,95,0.00,,,0.21,Graphweather,2013-05-11 03:14:00,
2013-05-10 23:19:00,71.6,69.8,30.06,ESE,112,2.5,0.0,95,0.00,,,0.21,Graphweather,2013-05-11 03:19:00,
2013-05-10 23:24:00,71.6,69.8,30.03,ESE,112,2.5,0.0,95,0.00,,,0.21,Graphweather,2013-05-11 03:24:00,
2013-05-10 23:29:00,71.6,69.8,30.03,ESE,112,2.5,0.0,95,0.00,,,0.21,Graphweather,2013-05-11 03:29:00,
2013-05-10 23:35:00,71.8,71.6,30.03,ESE,112,2.5,0.0,97,0.00,,,0.21,Graphweather,2013-05-11 03:35:00,
2013-05-10 23:40:00,71.8,71.6,30.06,ESE,112,2.5,0.0,97,0.00,,,0.21,Graphweather,2013-05-11 03:40:00,
2013-05-10 23:45:00,72.3,71.6,30.06,ESE,112,2.5,0.0,98,0.04,,,0.25,Graphweather,2013-05-11 03:45:00,
2013-05-10 23:50:00,72.5,73.4,30.06,ESE,112,2.5,0.0,98,0.04,,,0.25,Graphweather,2013-05-11 03:50:00,
2013-05-10 23:55:00,72.7,73.4,30.03,ESE,112,2.5,0.0,98,0.04,,,0.25,Graphweather,2013-05-11 03:55:00,